www.pogodaiklimat.ru

Погода и климат >> Архив погоды >> Латвия >> Бауска


ПОГОДА в Бауске

  • Прогноз погоды в Бауске
  • Монитор погоды в Бауске

АРХИВ ПОГОДЫ в Бауске

Время (UTC), дата Ветер
(напр.,м/с)
 
Видим.   Явления Облачность Т
(С)
Тd
(С)
f
(%)
Тe
(С)
Тes
(С)
Комфортность P
(гПа)
Po
(гПа)
Тmin
(С)
Tmax
(С)
R
(мм)
R24
(мм)
S
(см)
18 18.08 ЮВ 3-4
{4}
20 км н/о +20.8 +15.1 70 +24 +24 комфорт 1009.6 1006.1
21 18.08 ЮВ 3-4
{5}
20 км н/о +19.1 +14.1 73 +21 +21 комфорт 1009.3 1005.5
00 19.08 ЮВ 4-5
{6}
20 км н/о +19.1 +14.1 73 +20 +20 1008.5 1004.7
03 19.08 Ю 4-6
{6}
20 км н/о +20.5 +13.9 66 +23 +23 комфорт 1007.9 1004.1
06 19.08 ЮЗ 4-5
{6}
20 км н/о +21.3 +14.8 66 +24 +24 комфорт 1009.5 1005.8
09 19.08 З 5-9
{9}
20 км н/о +24.1 +17.0 65 +28 +28 душно 1010.8 1007.3
12 19.08 З 4-6
{8}
20 км н/о +25.6 +15.8 55 +29 +29 душно 1012.4 1008.7
15 19.08 З 5-8
{8}
16 км н/о +22.8 +14.3 59 +26 +26 жарко 1014.5 1011.0
18 19.08 З 2-3
{5}
13 км н/о +19.5 +13.6 69 +22 +22 комфорт 1015.9 1012.1
21 19.08 З 2-3
{4}
20 км н/о +16.0 +12.5 80 +16 +16 1017.6 1013.8
00 20.08 ЮВ 1-1
{2}
20 км н/о +13.2 +12.0 92 +13 +13 1018.4 1014.7
03 20.08 З 1-2
{3}
19 км н/о +11.7 +11.0 95 +11 +11 1020.2 1016.3
06 20.08 ЮЗ 3-4
{4}
19 км н/о +17.2 +14.6 85 +17 +17 1021.2 1017.4
09 20.08 ЮЗ 3-5
{6}
16 км н/о +21.4 +13.5 61 +24 +24 комфорт 1021.9 1018.1
12 20.08 Ю 4-8
{8}
19 км н/о +23.1 +12.9 53 +26 +26 жарко 1021.8 1018.0
15 20.08 Ю 2-3
{3}
19 км н/о +22.1 +15.3 65 +26 +26 душно 1022.2 1018.6
18 20.08 ЮЗ 3-4
{4}
20 км н/о +19.4 +13.9 70 +21 +21 комфорт 1022.8 1019.0
21 20.08 З 2-3
{3}
20 км н/о +16.4 +13.7 84 +17 +17 1023.3 1019.7
00 21.08 СЗ 1-2
{2}
20 км н/о +15.7 +13.3 86 +16 +16 1023.4 1019.5
03 21.08 СЗ 2-2
{2}
20 км н/о +15.1 +13.2 88 +15 +15 1023.4 1019.5
06 21.08 С 2-2
{4}
12 км н/о +15.6 +13.4 87 +15 +15 1023.7 1019.8 0.7
09 21.08 С 4-6
{6}
14 км н/о +15.7 +14.7 94 +15 +15 1022.3 1018.4 0.3
12 21.08 С 4-6
{7}
12 км н/о +14.3 +12.6 90 +13 +13 1022.6 1018.9 3
15 21.08 СЗ 3-4
{6}
20 км н/о +15.4 +13.2 87 +15 +15 1022.5 1018.6
18 21.08 З 2-3
{5}
20 км н/о +14.1 +12.6 91 +14 +14 1024.0 1020.1
21 21.08 З 2-3
{4}
20 км н/о +12.6 +11.7 94 +12 +12 1024.8 1020.9
00 22.08 З 3-3
{4}
19 км н/о +11.8 +11.1 95 +10 +10 1025.9 1022.0
03 22.08 ЮЗ 2-4
{4}
16 км н/о +11.3 +10.7 96 +10 +10 1026.6 1022.9
06 22.08 ЮЗ 3-5
{5}
19 км н/о +15.1 +13.4 90 +14 +14 1027.4 1023.5
09 22.08 З 4-6
{6}
20 км н/о +19.4 +12.3 63 +21 +21 комфорт 1028.2 1024.4
12 22.08 З 5-8
{8}
20 км н/о +20.5 +11.1 55 +22 +22 комфорт 1028.1 1024.3
15 22.08 З 3-4
{6}
18 км н/о +20.4 +11.0 55 +22 +22 комфорт 1028.1 1024.3
18 22.08 ЮЗ 2-3
{3}
19 км н/о +15.3 +11.9 80 +15 +15 1028.1 1024.4
21 22.08 З 1-1
{2}
20 км н/о +11.8 +10.6 92 +12 +12 1028.9 1024.9
00 23.08 Ю 1-2
{2}
11 км н/о +9.8 +9.6 99 +9 +9 1028.9 1024.9
03 23.08 ЮВ 1-2
{2}
8000 м н/о +8.4 +8.2 99 +7 +7 1028.8 1025.1
06 23.08 Ю 3-4
{4}
20 км н/о +15.0 +11.3 79 +14 +14 1028.9 1025.0
09 23.08 ЮЗ 5-7
{8}
20 км н/о +21.8 +11.9 53 +24 +24 комфорт 1028.4 1024.8
12 23.08 ЮЗ 5-9
{10}
20 км н/о +24.6 +11.1 43 +26 +26 жарко 1027.6 1023.8
15 23.08 ЮЗ 6-8
{10}
20 км н/о +23.9 +10.5 43 +25 +25 комфорт 1026.2 1022.4
18 23.08 ЮЗ 3-4
{5}
19 км н/о +18.8 +11.5 63 +20 +20 1025.6 1021.8
21 23.08 ЮЗ 4-5
{6}
20 км н/о +17.0 +11.0 68 +17 +17 1025.4 1021.5
00 24.08 ЮЗ 4-7
{7}
20 км н/о +16.0 +11.0 72 +15 +15 1024.8 1021.2
06 24.08 З 3-5
{7}
н/о н/о +17.9 +13.5 75 +18 +18 1025.4 1021.5
12 24.08 З 4-6
{6}
20 км н/о +24.7 +13.5 50 +27 +27 жарко 1025.9 1022.1
15 24.08 СВ 4-6
{6}
19 км н/о +23.1 +12.5 51 +26 +26 жарко 1025.9 1022.3
18 24.08 СВ 1-2
{2}
20 км н/о +19.0 +13.3 70 +21 +21 комфорт 1026.4 1022.6
21 24.08 С 1-1
{2}
20 км н/о +15.5 +12.4 82 +16 +16 1027.4 1023.5
12 25.08 СВ 2-3
{4}
19 км н/о +23.9 +11.8 47 +26 +26 жарко 1028.2 1024.6
15 25.08 В 2 н/о н/о +24.4 +12.9 49 +26 +26 жарко 1027.2 1023.6

 

Местоположение метеостанции Бауска (Латвия): широта 56.40 долгота 24.22 высота над уровнем моря 33 м.

В архиве по умолчанию представлена погода в Бауске за последнюю неделю. Архивные данные за месяц целиком и за предыдущие месяцы, начиная с января 2011 года, Вы можете получить, выбрав интересующий диапазон дат из раскрывающегося списка и нажав кнопку "Ввод!".


*Определитесь, кто Вы:
робот инопланетянин человек

Внимание! Время в таблицах - всемирное. Для получения местного времени необходимо прибавить поправку, которая равна 2 ч.

Смотрите также архив погоды в соседних городах и на ближайших метеорологических станциях:

Погода в Биржае (Литва) (41 км)
Погода в Елгаве (Латвия) (41 км)
Погода в Добеле (Латвия) (60 км)
Погода в Скриверу (Латвия) (62 км)
Погода в Риге (Латвия) (64 км)
Погода в Паневежисе (Литва) (74 км)
Погода в Шяуляе (Литва) (76 км)
Погода в Скульте (Латвия) (103 км)
Погода в Зилани (Латвия) (105 км)
Погода в Салдусе (Латвия) (110 км)

Пояснения к столбцам:

Ветер - указаны скорость ветра в м/с - средняя за 10 мин, порывы в срок и между сроками (в фигурных скобках) и направление, откуда дует ветер: С - северный, СВ - северо-восточный, В - восточный, ЮВ - юго-восточный, Ю - южный, ЮЗ - юго-западный, З - западный, СЗ - северо-западный.
Видимость - горизонтальная дальность видимости в метрах или километрах. При видимости от 1 до 10 км при отсутствии осадков обычно наблюдается дымка, при ухудшении видимости до 1 км и менее - туман. В сухую погоду видимость может ухудшаться дымом, пылью или мглою.
Явления - указаны атмосферные явления, наблюдавшиеся в срок или в последний час перед сроком; фигурными скобками обозначены явления, наблюдавшиеся между сроками (за 1-3 часа до срока); квадратными скобками обозначены град или гололедные отложения с указанием их диаметра в мм.
Облачность - указаны через наклонную черту общая и нижняя облачность в баллах и высота нижней границы облаков в метрах; квадратными скобками обозначены формы облаков: Ci - перистые, Cs - перисто-слоистые, Cc - перисто-кучевые, Ac - высококучевые, As - высокослоистые, Sc - слоисто-кучевые, Ns - слоисто-дождевые, Cu - кучевые, Cb - кучево-дождевые. Подробнее классификацию облаков см. в Атласе облаков (PDF).
T - Температура воздуха - температура, измеренная на высоте 2 м над землей.
Td - Температура точки росы - температура, при понижении до которой содержащийся в воздухе водяной пар достигнет насыщения.
f - Относительная влажность воздуха - влажноcть воздуха, измеренная на высоте 2 м над землей.
Te - Эффективная температура - температура, которую ощущает одетый по сезону человек в тени. Характеристика душности погоды. При расчете учитывается влияние влажности воздуха и скорости ветра на теплоощущения человека.
Tes - Эффективная температура на солнце - температура, которую ощущает человек, с поправкой на солнечный нагрев. Характеристика знойности погоды. Зависит от высоты солнца над горизонтом, облачности и скорости ветра. Ночью, в пасмурную погоду, а также при ветре 12 м/с и более поправка равна нулю.
P - Атмосферное давление - приведенное к уровню моря атмосферное давление.
Po - Атмосферное давление - измеренное на уровне метеостанции атмосферное давление.
Tmin - Минимальная температура - минимум температуры воздуха на высоте 2 м над землей.
Tmax - Максимальная температура - максимум температуры воздуха на высоте 2 м над землей.
R - Количество осадков - Количество выпавших осадков за период времени, мм. При наведении курсора мыши на число - период времени, за который выпало указанное количество осадков.
R24 - Количество осадков - Количество выпавших осадков за 24 часа, мм.
S - Снежный покров - Высота снежного покрова, см. При наведении курсора мыши на число - состояние снежного покрова и степень покрытия местности в баллах.